Home   Weather   Tübingen   Past weeks

Flag for Germany Past Weather in Tübingen, Baden-Württemberg, Germany — Yesterday and Last 2 Weeks

Now
48 °F

Clear.


Feels Like: 47 °F
Forecast: 39 / 56 °F
Wind: 3 mph from West

Location: Stuttgart-Echterdingen

Current Time: Apr 24, 2017 at 11:11:07 pm

Latest Report: Apr 24, 2017 at 10:20 pm


Visibility: 10 mi

Pressure: 29.80 "Hg

Humidity: 62%

Dew Point: 36 °F

Location of TübingenLocation

Past Weather in Tübingen — Graph

°F

Tübingen Temperature Yesterday

Maximum temperature yesterday: 50 °F (at 4:50 pm)
Minimum temperature yesterday: 36 °F (at 11:50 pm)
Average temperature yesterday: 43 °F

High & Low Weather Summary for the Past Weeks

 TemperatureHumidityPressure
High73 °F (Apr 10, 1:20 pm)100% (Apr 18, 9:20 pm)30.54 "Hg (Apr 18, 9:20 pm)
Low27 °F (Apr 20, 5:20 am)20% (Apr 10, 2:50 pm)29.80 "Hg (Apr 24, 8:20 pm)
Average46 °F65%30.16 "Hg
* Reported Apr 9 9:20 pm — Apr 24 9:50 pm, Tübingen, Weather by CustomWeather, © 2017

Note: Actual official high and low records may vary slightly from our data, if they occured in-between our weather recording intervals... More about our weather records

Advertising

Tübingen Weather History for the Previous 24 Hours

Scroll right to see more
 ConditionsComfort  
Time TempWeatherWind HumidityBarometerVisibility
9:50 pm
Mon, Apr 24
52 °FClear.1 mph58%29.80 "Hg10 mi
9:20 pm54 °FClear.2 mph51%29.80 "Hg10 mi
8:50 pm55 °FClear.2 mph44%29.80 "Hg10 mi
8:20 pm57 °FSunny.3 mph41%29.80 "Hg10 mi
7:50 pm59 °FPassing clouds.6 mph42%29.83 "HgN/A
7:20 pm61 °FPassing clouds.7 mph39%29.83 "HgN/A
6:50 pm61 °FPassing clouds.9 mph36%29.83 "HgN/A
6:20 pm63 °FPassing clouds.9 mph34%29.83 "HgN/A
5:50 pm66 °FSunny.3 mph30%29.83 "Hg10 mi
5:20 pm64 °FPassing clouds.7 mph30%29.86 "HgN/A
4:50 pm64 °FSunny.3 mph32%29.86 "Hg10 mi
4:20 pm64 °FPassing clouds.7 mph30%29.89 "HgN/A
3:50 pm63 °FSunny.5 mph30%29.92 "Hg10 mi
3:20 pm63 °FSunny.5 mph32%29.92 "Hg10 mi
2:50 pm61 °FPassing clouds.6 mph31%29.95 "HgN/A
2:20 pm61 °FSunny.3 mph29%29.95 "Hg10 mi
1:50 pm59 °FPassing clouds.5 mph34%29.98 "HgN/A
1:20 pm57 °FPassing clouds.6 mph33%29.98 "HgN/A
12:50 pm55 °FPassing clouds.5 mph41%30.01 "HgN/A
12:20 pm54 °FSunny.5 mph44%30.01 "Hg10 mi
11:50 am52 °FSunny.6 mph44%30.04 "Hg10 mi
11:20 am50 °FPassing clouds.5 mph47%30.04 "HgN/A
10:50 am48 °FPassing clouds.5 mph50%30.07 "HgN/A
10:20 am48 °FPassing clouds.5 mph50%30.07 "HgN/A
9:50 am45 °FSunny.2 mph61%30.07 "Hg10 mi
9:20 am43 °FPassing clouds.3 mph61%30.07 "HgN/A
8:50 am41 °FSunny.2 mph70%30.09 "Hg10 mi
8:20 am39 °FSunny.2 mph70%30.09 "Hg10 mi
7:50 am36 °FSunny.1 mph75%30.09 "Hg10 mi
7:20 am32 °FSunny.No wind87%30.09 "Hg10 mi
6:50 am30 °FSunny.No wind80%30.09 "Hg10 mi
5:50 am30 °FClear.1 mph86%30.09 "Hg10 mi
4:50 am30 °FClear.2 mph86%30.12 "Hg10 mi
4:20 am32 °FClear.3 mph80%30.12 "Hg10 mi
3:50 am32 °FPassing clouds.3 mph80%30.12 "HgN/A
3:20 am32 °FClear.2 mph80%30.15 "Hg10 mi
2:50 am32 °FClear.1 mph80%30.15 "Hg10 mi
2:20 am32 °FClear.1 mph80%30.18 "Hg10 mi
1:50 am34 °FClear.2 mph75%30.18 "Hg10 mi
1:20 am34 °FClear.2 mph81%30.18 "Hg10 mi
12:50 am34 °FClear.6 mph81%30.21 "Hg10 mi
12:20 am37 °FClear.2 mph65%30.21 "Hg10 mi
11:50 pm
Sun, Apr 23
36 °FClear.2 mph70%30.21 "Hg10 mi
Weather by CustomWeather, © 2017

See weather overviewHow to use our weather pages